Terminal Aerodrome Forecast
Issued by NWS

Home | Current Version | Previous Version | Text Only | Print | Product List | Glossary On
Versions: 1 2 3 4 5 6 7 8 9 10 11 12 13 14 15 16 17 18 19 20 21 22 23 24 25 26 27 28 29 30 31 32
000
FTAK31 PANC 280542
TAFAGK
TAF
PAGK 280542Z 2806/2906 16015G25KT P6SM BKN060
      TEMPO 2807/2809 16008KT
     FM280900 16008KT P6SM VCSH BKN060
     FM281500 16005KT P6SM -SHRA BKN050
     FM290000 16011KT P6SM VCSH BKN050=

USA.gov is the U.S. government's official web portal to all federal, state and local government web resources and services.